This is the latest recevied weather packets stored in our database for station/object EB1BWO-10. If no packets are shown the sender has not sent any weather packets the latest 10 day(s).
| Time | Temp. | Humidity | Pressure | Rain* | Wind** | Luminosity | Snow |
|---|---|---|---|---|---|---|---|
| 1777816672 | 12.22° C | 95% | 947.2 hPa | - | - | - | - |
| 1777815772 | 11.67° C | 99% | 947.2 hPa | - | - | - | - |
| 1777814872 | 11.67° C | 93% | 946.8 hPa | - | - | - | - |
| 1777813972 | 12.22° C | 89% | 946.9 hPa | - | - | - | - |
| 1777812173 | 13.89° C | 89% | 946.9 hPa | - | - | - | - |
| 1777811273 | 13.89° C | 88% | 946.8 hPa | - | - | - | - |
| 1777810373 | 14.44° C | 88% | 947.2 hPa | - | - | - | - |
| 1777809473 | 14.44° C | 88% | 947.2 hPa | - | - | - | - |
| 1777808573 | 15° C | 86% | 947.2 hPa | - | - | - | - |
| 1777807672 | 16.11° C | 85% | 947.6 hPa | - | - | - | - |
| 1777806772 | 16.11° C | 83% | 947.6 hPa | - | - | - | - |
| 1777805872 | 16.11° C | 83% | 947.7 hPa | - | - | - | - |
| 1777804972 | 16.67° C | 76% | 947.5 hPa | - | - | - | - |
| 1777804072 | 15° C | 84% | 947.7 hPa | - | - | - | - |
| 1777803172 | 15° C | 82% | 947.8 hPa | - | - | - | - |
| 1777802272 | 15.56° C | 85% | 947.8 hPa | - | - | - | - |
| 1777801372 | 15° C | 85% | 947.9 hPa | - | - | - | - |
| 1777800472 | 15° C | 89% | 948 hPa | - | - | - | - |
| 1777799572 | 16.11° C | 82% | 948 hPa | - | - | - | - |
| 1777798672 | 17.22° C | 86% | 948.1 hPa | - | - | - | - |
| 1777797772 | 16.11° C | 87% | 948.2 hPa | - | - | - | - |
| 1777796872 | 16.11° C | 86% | 948.1 hPa | - | - | - | - |
| 1777795972 | 14.44° C | 91% | 948.1 hPa | - | - | - | - |
| 1777795072 | 13.89° C | 92% | 948.1 hPa | - | - | - | - |
| 1777794171 | 12.22° C | 93% | 948.3 hPa | - | - | - | - |
* Rain since midnight (hover to see other rain measurements)
** Current wind speed in m/s (hover to see current wind gust speed)